Torna al catalogo

COSMOS 1275 DEB

AttivoPO
NORAD 12759·DEBRIS·🇷🇺 Russia

Lanciato Jun 4, 1981 da Plesetsk Cosmodrome

Loading…

Prossimi Passaggi (prossime 24 ore)

TLE

AggiornatoSource: Space-Track

Epoca: Sep 14, 2026, 05:58 UTC

1 12759U 81053DC  26257.24898920  .00000564  00000-0  33709-3 0  9995
2 12759  82.8647 344.0995 0043696 353.0793  35.5485 14.05148483294769

Traccia COSMOS 1275 DEB in tempo reale con AllMySat

Download on the App Store